STARLINK-2627, 48687

Orbit data source: Space-Track

STARLINK-2627, 48687 is a payload satellite owned by SpaceX/Seattle (US) in LEO that was launched on Wed, 26 May 2021 UTC via an FALCON 9 launch vehicle from the Air Force Eastern Test Range (AFETR). Payload-class satellites include a variety of spacecraft equipped with specific instruments for various scientific and technological missions. These include communications satellites like Starlink; space stations such as the ISS; scientific satellites like the Hubble; Earth observation satellites from companies like Planet Labs, Umbra, and HawkEye 360; GPS; miniature CubeSats for education and research; and military/defense satellites.

Loading next visibility...
Identifier
48687, 2021-044BB
Orbit
LEO
Country
Flag of USUS
Related business
Manufacturer
SpaceX/Seattle
Mission
Operational Commercial Communications
Bus & Motor
STARLINK, Unknown motor
Mass
260 kg wet, ~248 kg dry
Launch date (UTC)
2021-05-26 (5 years ago)
Launch vehicle
FALCON 9
Launch site
Air Force Eastern Test Range (AFETR)
Object type
Payload
Rocket body
Debris
Shape & HBR
Box + 1 Pan, 10.1 m
Radar Cross Section
13.562 m², Large (>1 m²)

Expand to show TLE details & history
Last TLE update: 3 days ago

TLE from 3 days ago
0 STARLINK-2627
1 48687U 21044BB  26170.79835009  .00003850  00000-0  13572-3 0  9998
2 48687  53.1596 309.9500 0001069  77.1705 282.9416 15.31712487280149
Epoch: 2026-06-19T19:09Z
TLE epoch observation values (Epoch: 2026-06-19T19:09:37.447Z)
Latitude
-0.00002°
Longitude
114.5218°
Altitude
471.439 km
Speed
7.632 km/s
True Right ascension
20h 39m 47s
True Declination
0° 00' 00"
Sunlit
Object was in full shadow at epoch
Visualization orbit readout
Latitude
Unknown
Longitude
Unknown
Altitude
Unknown
Speed
Unknown
Apparent Right ascension
Unknown
Apparent Declination
Unknown
Sunlit
N/A
Visualization observer readout
Local Sidereal Time
21:54:30
Azimuth
Unknown
Elevation
Unknown
Doppler factor
Unknown
Orbital elements
Apogee altitude
471.692 km
Perigee altitude
470.227 km
Semi-major axis
6,849.096 km
Eccentricity
0.00011
Inclination
53.1596°
RAAN
309.95°
Arg. of periapsis
77.1705°
True anomaly
282.92966°
Mean anomaly
282.9416°
Eccentric anomaly
282.93563°
Mean motion
3.82907 °/min
Orbital period
94.02 mins
BSTAR
0.00013572
Loading maneuver chart data...
Computing Atmospheric mass density...
Loading historical data...
Loading historical data...
Loading historical data...
Loading historical data...
Loading historical data...
Loading historical data...
Loading historical data...

Documentation

Showing up to 5 results
|